User: anonymous   Login
Location: Charbonni�res
(45.9952°N, 2.9982°E)
Time: 09:19:19
(UTC+00:00)
Language:

FENGYUN 1C DEB - Orbit

View from above orbital plane
View from above orbital plane
View from above satellite
View from above satellite

Ground track
Ground track

The orbit data is extracted from the following two-line orbital elements,

1 31611U 99025BZR 21166.25950742  .00001358  00000-0  44528-3 0  9990
2 31611  98.9934 342.0686 0110597  68.2694 105.7977 14.36697113434416
Epoch (UTC): 15 June 2021 06:13:41
Eccentricity: 0.0110597
inclination: 98.9934°
perigee height: 690 km
apogee height: 848 km
right ascension of ascending node: 342.0686°
argument of perigee: 68.2694°
revolutions per day: 14.36697113
mean anomaly at epoch: 105.7977°
orbit number at epoch: 43441

The dashed part of the orbit path shows where the satellite is in the earth's shadow,  

DLR